Jaipur, India

12:40 AM IST on October 02, 2016 (GMT +0530)
Jaipur

Weather History for VIJP - September, 2012

Change the Weather History Date:

Thursday, September 27, 2012

  Actual Average Record
Temperature  
Mean Temperature 84 °F -  
Max Temperature 93 °F - - ()
Min Temperature 76 °F - - ()
Cooling Degree Days 20    
Growing Degree Days 34 (Base 50)    
Moisture  
Dew Point 64 °F    
Average Humidity 51    
Maximum Humidity 78    
Minimum Humidity 25    
Precipitation  
Precipitation 0.00 in - - ()
Sea Level Pressure  
Sea Level Pressure 29.91 in    
Wind  
Wind Speed 2 mph ()    
Max Wind Speed 7 mph    
Max Gust Speed -    
Visibility 1.9 miles    
Events      
T = Trace of Precipitation, MM = Missing Value Source: Averaged Metar Reports

Daily Weather History Graph

Daily Weather History Graph

Search for Another Location

Airport or City:

Trip Planner

Search our weather history database for the weather conditions in past years. The results will help you decide how hot, cold, wet, or windy it might be!

Date:

Astronomy

Sep. 27, 2012 Rise Set
Actual Time 6:17 AM IST 6:17 PM IST
Civil Twilight 5:54 AM IST 6:40 PM IST
Nautical Twilight 5:27 AM IST 7:07 PM IST
Astronomical Twilight 5:00 AM IST 7:34 PM IST
Moon 4:24 PM IST (9/27) 3:31 AM IST (9/27)
Length of Visible Light 12h 46m
Length of Day
11h 59m
Waxing Gibbous, 91% of the Moon is Illuminated
Sep 27
Waxing Gibbous
Sep 30
Full
Oct 8
Last Quarter
Oct 15
New
Oct 22
First Quarter

Hourly Weather History & Observations

Time (IST) Temp. Heat Index Dew Point Humidity Pressure Visibility Wind Dir Wind Speed Gust Speed Precip Events Conditions
12:00 AM 78.8 °F - 64.4 °F 61% 29.95 in 1.9 mi Calm Calm - N/A   Haze
1:00 AM 80.6 °F 82.3 °F 64.4 °F 58% 29.92 in 1.9 mi Variable 2.3 mph - N/A   Haze
2:00 AM 78.8 °F - 64.4 °F 61% 29.92 in 1.9 mi Variable 4.6 mph - N/A   Haze
2:30 AM 80 °F - 67 °F 55% 29.85 in 1 mi North 5.8 mph - -   Haze
3:00 AM 78.8 °F - 64.4 °F 61% 29.92 in 1.9 mi Variable 4.6 mph - N/A   Haze
4:00 AM 78.8 °F - 64.4 °F 61% 29.92 in 1.9 mi Variable 4.6 mph - N/A   Haze
5:00 AM 78.8 °F - 64.4 °F 61% 29.92 in 1.9 mi Variable 1.2 mph - N/A   Haze
5:30 AM 78 °F - 67 °F 62% 29.86 in 1 mi NW 3.5 mph - -   Haze
6:00 AM 77.0 °F - 66.2 °F 69% 29.95 in 1.9 mi Variable 4.6 mph - N/A   Haze
7:00 AM 77.0 °F - 69.8 °F 78% 29.95 in 1.9 mi Variable 2.3 mph - N/A   Haze
8:30 AM 82 °F - 62 °F 41% 29.91 in 1 mi Calm Calm - -   Haze
9:00 AM 84.2 °F 85.0 °F 62.6 °F 48% 29.98 in 1.9 mi Variable 5.8 mph - N/A   Haze
10:00 AM 87.8 °F 88.5 °F 62.6 °F 43% 29.98 in 1.9 mi NE 5.8 mph - N/A   Haze
11:00 AM 89.6 °F 89.5 °F 60.8 °F 38% 29.98 in 2.5 mi ENE 4.6 mph - N/A   Haze
11:30 AM 91 °F - 60 °F 25% 29.87 in 2 mi NE 4.6 mph - -   Haze
1:00 PM 91.4 °F 91.4 °F 60.8 °F 36% 29.95 in 2.5 mi Variable 6.9 mph - N/A   Haze
2:00 PM 93.2 °F 93.3 °F 60.8 °F 34% 29.92 in 2.5 mi Variable 3.5 mph - N/A   Haze
2:30 PM 91 °F - 60 °F 25% 29.81 in 2 mi NW 2.3 mph - -   Haze
5:00 PM 89.6 °F 89.5 °F 60.8 °F 38% 29.86 in 3.1 mi Variable 2.3 mph - N/A   Haze
6:00 PM 89.6 °F 89.5 °F 60.8 °F 38% 29.86 in 2.5 mi Variable 1.2 mph - N/A   Haze
7:00 PM 86.0 °F 86.1 °F 60.8 °F 43% 29.89 in 2.5 mi Calm Calm - N/A   Haze
8:30 PM 84 °F - 64 °F 41% 29.83 in 1 mi Calm Calm - -   Haze
9:00 PM 82.4 °F 83.9 °F 64.4 °F 54% 29.92 in 1.9 mi Calm Calm - N/A   Haze
9:30 PM 80.6 °F 82.3 °F 64.4 °F 58% 29.92 in 1.9 mi Calm Calm - N/A   Haze
10:00 PM 80.6 °F 82.3 °F 64.4 °F 58% 29.92 in 1.9 mi Calm Calm - N/A   Haze
10:30 PM 77.0 °F - 64.4 °F 65% 29.92 in 1.9 mi Calm Calm - N/A   Haze
11:00 PM 78.8 °F - 64.4 °F 61% 29.92 in 1.9 mi Calm Calm - N/A   Haze
11:30 PM 77 °F - 66 °F 62% 29.86 in 1 mi Calm Calm - -   Haze